Time,TemperatureF,DewpointF,PressureIn,WindDirection,WindDirectionDegrees,WindSpeedMPH,WindSpeedGustMPH,Humidity,HourlyPrecipIn,Conditions,Clouds,dailyrainin,SolarRadiationWatts/m^2,SoftwareType,DateUTC
2013-03-29 00:03:00,36.0,21.0,-100.00,NNW,327,4.0,9.0,54,0.00,,,-99.99,0.000000,,2013-03-29 04:03:00,
2013-03-29 00:33:00,35.0,20.0,-100.00,NW,304,2.0,7.0,55,0.00,,,-99.99,0.000000,,2013-03-29 04:33:00,
2013-03-29 00:43:00,35.0,20.0,-100.00,NW,304,2.0,7.0,55,0.00,,,-99.99,0.000000,,2013-03-29 04:43:00,
2013-03-29 00:53:00,35.0,20.0,-100.00,NW,304,2.0,7.0,55,0.00,,,-99.99,0.000000,,2013-03-29 04:53:00,
2013-03-29 01:03:00,35.0,20.0,-100.00,NW,304,2.0,7.0,55,0.00,,,-99.99,0.000000,,2013-03-29 05:03:00,
2013-03-29 01:33:00,35.0,25.0,-100.00,West,275,3.0,6.0,67,0.00,,,-99.99,0.000000,,2013-03-29 05:33:00,
2013-03-29 01:43:00,35.0,25.0,-100.00,West,275,3.0,6.0,67,0.00,,,-99.99,0.000000,,2013-03-29 05:43:00,
2013-03-29 01:52:00,35.0,25.0,-100.00,West,275,3.0,6.0,67,0.00,,,-99.99,0.000000,,2013-03-29 05:52:00,
2013-03-29 02:03:00,35.0,25.0,-100.00,West,275,3.0,6.0,67,0.00,,,-99.99,0.000000,,2013-03-29 06:03:00,
2013-03-29 02:32:00,34.0,26.0,-100.00,WNW,288,3.0,7.0,73,0.00,,,-99.99,0.000000,,2013-03-29 06:32:00,
2013-03-29 02:42:00,34.0,26.0,-100.00,WNW,288,3.0,7.0,73,0.00,,,-99.99,0.000000,,2013-03-29 06:42:00,
2013-03-29 02:52:00,34.0,26.0,-100.00,WNW,288,3.0,7.0,73,0.00,,,-99.99,0.000000,,2013-03-29 06:52:00,
2013-03-29 03:03:00,34.0,26.0,-100.00,WNW,288,3.0,7.0,73,0.00,,,-99.99,0.000000,,2013-03-29 07:03:00,
2013-03-29 03:32:00,33.0,27.0,-100.00,West,277,3.0,6.0,77,0.00,,,-99.99,0.000000,,2013-03-29 07:32:00,
2013-03-29 03:42:00,33.0,27.0,-100.00,West,277,3.0,6.0,77,0.00,,,-99.99,0.000000,,2013-03-29 07:42:00,
2013-03-29 03:52:00,33.0,27.0,-100.00,West,277,3.0,6.0,77,0.00,,,-99.99,0.000000,,2013-03-29 07:52:00,
2013-03-29 04:02:00,33.0,27.0,-100.00,West,277,3.0,6.0,77,0.00,,,-99.99,0.000000,,2013-03-29 08:02:00,
2013-03-29 04:32:00,33.0,28.0,-100.00,WNW,300,3.0,6.0,80,0.00,,,-99.99,0.000000,,2013-03-29 08:32:00,
2013-03-29 04:42:00,33.0,28.0,-100.00,WNW,300,3.0,6.0,80,0.00,,,-99.99,0.000000,,2013-03-29 08:42:00,
2013-03-29 04:53:00,33.0,28.0,-100.00,WNW,300,3.0,6.0,80,0.00,,,-99.99,0.000000,,2013-03-29 08:53:00,
2013-03-29 05:02:00,33.0,28.0,-100.00,WNW,300,3.0,6.0,80,0.00,,,-99.99,0.000000,,2013-03-29 09:02:00,
2013-03-29 05:33:00,33.0,28.0,-100.00,WNW,286,3.0,7.0,82,0.00,,,-99.99,0.000000,,2013-03-29 09:33:00,
2013-03-29 05:43:00,33.0,28.0,-100.00,WNW,286,3.0,7.0,82,0.00,,,-99.99,0.000000,,2013-03-29 09:43:00,
2013-03-29 05:52:00,33.0,28.0,-100.00,WNW,286,3.0,7.0,82,0.00,,,-99.99,0.000000,,2013-03-29 09:52:00,
2013-03-29 06:03:00,33.0,28.0,-100.00,WNW,286,3.0,7.0,82,0.00,,,-99.99,0.000000,,2013-03-29 10:03:00,
2013-03-29 06:33:00,31.0,27.0,-100.00,WNW,295,3.0,6.0,85,0.00,,,-99.99,0.000000,,2013-03-29 10:33:00,
2013-03-29 06:42:00,31.0,27.0,-100.00,WNW,295,3.0,6.0,85,0.00,,,-99.99,0.000000,,2013-03-29 10:42:00,
2013-03-29 06:53:00,31.0,27.0,-100.00,WNW,295,3.0,6.0,85,0.00,,,-99.99,0.000000,,2013-03-29 10:53:00,
2013-03-29 07:04:00,31.0,27.0,-100.00,WNW,295,3.0,6.0,85,0.00,,,-99.99,0.000000,,2013-03-29 11:04:00,
2013-03-29 07:33:00,31.0,28.0,-100.00,WNW,300,2.0,6.0,89,0.00,,,-99.99,1.000000,,2013-03-29 11:33:00,
2013-03-29 07:43:00,31.0,28.0,-100.00,WNW,300,2.0,6.0,89,0.00,,,-99.99,1.000000,,2013-03-29 11:43:00,
2013-03-29 07:53:00,31.0,28.0,-100.00,WNW,300,2.0,6.0,89,0.00,,,-99.99,1.000000,,2013-03-29 11:53:00,
2013-03-29 08:03:00,31.0,28.0,-100.00,WNW,300,2.0,6.0,89,0.00,,,-99.99,1.000000,,2013-03-29 12:03:00,
2013-03-29 08:33:00,33.0,30.0,-100.00,WNW,294,4.0,7.0,87,0.00,,,-99.99,35.000000,,2013-03-29 12:33:00,
2013-03-29 08:43:00,33.0,30.0,-100.00,WNW,294,4.0,7.0,87,0.00,,,-99.99,35.000000,,2013-03-29 12:43:00,
2013-03-29 08:53:00,33.0,30.0,-100.00,WNW,294,4.0,7.0,87,0.00,,,-99.99,35.000000,,2013-03-29 12:53:00,
2013-03-29 09:03:00,33.0,30.0,-100.00,WNW,294,4.0,7.0,87,0.00,,,-99.99,35.000000,,2013-03-29 13:03:00,
2013-03-29 09:33:00,35.0,29.0,-100.00,WNW,285,5.0,11.0,80,0.00,,,-99.99,109.000000,,2013-03-29 13:33:00,
2013-03-29 09:43:00,35.0,29.0,-100.00,WNW,285,5.0,11.0,80,0.00,,,-99.99,109.000000,,2013-03-29 13:43:00,
2013-03-29 09:53:00,35.0,29.0,-100.00,WNW,285,5.0,11.0,80,0.00,,,-99.99,109.000000,,2013-03-29 13:53:00,
2013-03-29 10:03:00,35.0,29.0,-100.00,WNW,285,5.0,11.0,80,0.00,,,-99.99,109.000000,,2013-03-29 14:03:00,
2013-03-29 10:33:00,36.0,29.0,-100.00,WNW,300,5.0,12.0,77,0.00,,,-99.99,148.000000,,2013-03-29 14:33:00,
2013-03-29 10:42:00,36.0,29.0,-100.00,WNW,300,5.0,12.0,77,0.00,,,-99.99,148.000000,,2013-03-29 14:42:00,
2013-03-29 10:53:00,36.0,29.0,-100.00,WNW,300,5.0,12.0,77,0.00,,,-99.99,148.000000,,2013-03-29 14:53:00,
2013-03-29 11:02:00,36.0,29.0,-100.00,WNW,300,5.0,12.0,77,0.00,,,-99.99,148.000000,,2013-03-29 15:02:00,
2013-03-29 11:33:00,39.0,30.0,-100.00,NW,312,5.0,14.0,70,0.00,,,-99.99,288.000000,,2013-03-29 15:33:00,
2013-03-29 11:43:00,39.0,30.0,-100.00,NW,312,5.0,14.0,70,0.00,,,-99.99,288.000000,,2013-03-29 15:43:00,
2013-03-29 11:53:00,39.0,30.0,-100.00,NW,312,5.0,14.0,70,0.00,,,-99.99,288.000000,,2013-03-29 15:53:00,
2013-03-29 12:03:00,39.0,30.0,-100.00,NW,312,5.0,14.0,70,0.00,,,-99.99,288.000000,,2013-03-29 16:03:00,
2013-03-29 12:33:00,45.0,33.0,-100.00,WNW,300,6.0,12.0,62,0.00,,,-99.99,530.000000,,2013-03-29 16:33:00,
2013-03-29 12:43:00,45.0,33.0,-100.00,WNW,300,6.0,12.0,62,0.00,,,-99.99,530.000000,,2013-03-29 16:43:00,
2013-03-29 12:53:00,45.0,33.0,-100.00,WNW,300,6.0,12.0,62,0.00,,,-99.99,530.000000,,2013-03-29 16:53:00,
2013-03-29 13:03:00,45.0,33.0,-100.00,WNW,300,6.0,12.0,62,0.00,,,-99.99,530.000000,,2013-03-29 17:03:00,
2013-03-29 13:33:00,47.0,27.0,-100.00,North,6,8.0,15.0,45,0.00,,,-99.99,725.000000,,2013-03-29 17:33:00,
2013-03-29 13:43:00,47.0,27.0,-100.00,North,6,8.0,15.0,45,0.00,,,-99.99,725.000000,,2013-03-29 17:43:00,
2013-03-29 13:53:00,47.0,27.0,-100.00,North,6,8.0,15.0,45,0.00,,,-99.99,725.000000,,2013-03-29 17:53:00,
2013-03-29 14:02:00,47.0,27.0,-100.00,North,6,8.0,15.0,45,0.00,,,-99.99,725.000000,,2013-03-29 18:02:00,
2013-03-29 14:33:00,44.0,24.0,-100.00,WNW,300,5.0,15.0,45,0.00,,,0.00,190.000000,,2013-03-29 18:33:00,
2013-03-29 14:43:00,44.0,24.0,-100.00,WNW,300,5.0,15.0,45,0.00,,,0.00,190.000000,,2013-03-29 18:43:00,
2013-03-29 14:53:00,44.0,24.0,-100.00,WNW,300,5.0,15.0,45,0.00,,,0.00,190.000000,,2013-03-29 18:53:00,
2013-03-29 15:03:00,44.0,24.0,-100.00,WNW,300,5.0,15.0,45,0.00,,,0.00,190.000000,,2013-03-29 19:03:00,
2013-03-29 15:33:00,45.0,22.0,-100.00,WNW,297,5.0,14.0,39,0.00,,,0.00,197.000000,,2013-03-29 19:33:00,
2013-03-29 15:43:00,45.0,22.0,-100.00,WNW,297,5.0,14.0,39,0.00,,,0.00,197.000000,,2013-03-29 19:43:00,
2013-03-29 15:53:00,45.0,22.0,-100.00,WNW,297,5.0,14.0,39,0.00,,,0.00,197.000000,,2013-03-29 19:53:00,
2013-03-29 16:03:00,45.0,22.0,-100.00,WNW,297,5.0,14.0,39,0.00,,,0.00,197.000000,,2013-03-29 20:03:00,
2013-03-29 16:33:00,45.0,23.0,-100.00,NW,317,6.0,12.0,42,0.00,,,0.00,229.000000,,2013-03-29 20:33:00,
2013-03-29 16:42:00,45.0,23.0,-100.00,NW,317,6.0,12.0,42,0.00,,,0.00,229.000000,,2013-03-29 20:42:00,
2013-03-29 16:52:00,45.0,23.0,-100.00,NW,317,6.0,12.0,42,0.00,,,0.00,229.000000,,2013-03-29 20:52:00,
2013-03-29 17:02:00,45.0,23.0,-100.00,NW,317,6.0,12.0,42,0.00,,,0.00,229.000000,,2013-03-29 21:02:00,
2013-03-29 17:33:00,44.0,22.0,-100.00,NW,307,5.0,12.0,42,0.00,,,0.00,121.000000,,2013-03-29 21:33:00,
2013-03-29 17:43:00,44.0,22.0,-100.00,NW,307,5.0,12.0,42,0.00,,,0.00,121.000000,,2013-03-29 21:43:00,
2013-03-29 17:53:00,44.0,22.0,-100.00,NW,307,5.0,12.0,42,0.00,,,0.00,121.000000,,2013-03-29 21:53:00,
2013-03-29 18:03:00,44.0,22.0,-100.00,NW,307,5.0,12.0,42,0.00,,,0.00,121.000000,,2013-03-29 22:03:00,
2013-03-29 18:34:00,42.0,25.0,-100.00,West,268,5.0,12.0,50,0.00,,,0.00,116.000000,,2013-03-29 22:34:00,
2013-03-29 18:43:00,42.0,25.0,-100.00,West,268,5.0,12.0,50,0.00,,,0.00,116.000000,,2013-03-29 22:43:00,
2013-03-29 18:54:00,42.0,25.0,-100.00,West,268,5.0,12.0,50,0.00,,,0.00,116.000000,,2013-03-29 22:54:00,
2013-03-29 19:03:00,42.0,25.0,-100.00,West,268,5.0,12.0,50,0.00,,,0.00,116.000000,,2013-03-29 23:03:00,
2013-03-29 19:32:00,41.0,26.0,-100.00,NW,307,4.0,9.0,55,0.00,,,0.00,46.000000,,2013-03-29 23:32:00,
2013-03-29 19:43:00,41.0,26.0,-100.00,NW,307,4.0,9.0,55,0.00,,,0.00,46.000000,,2013-03-29 23:43:00,
2013-03-29 19:53:00,41.0,26.0,-100.00,NW,307,4.0,9.0,55,0.00,,,0.00,46.000000,,2013-03-29 23:53:00,
2013-03-29 20:03:00,41.0,26.0,-100.00,NW,307,4.0,9.0,55,0.00,,,0.00,46.000000,,2013-03-30 00:03:00,
2013-03-29 20:33:00,39.0,25.0,-100.00,WNW,287,5.0,11.0,58,0.00,,,0.00,4.000000,,2013-03-30 00:33:00,
2013-03-29 20:43:00,39.0,25.0,-100.00,WNW,287,5.0,11.0,58,0.00,,,0.00,4.000000,,2013-03-30 00:43:00,
2013-03-29 20:53:00,39.0,25.0,-100.00,WNW,287,5.0,11.0,58,0.00,,,0.00,4.000000,,2013-03-30 00:53:00,
2013-03-29 21:03:00,39.0,25.0,-100.00,WNW,287,5.0,11.0,58,0.00,,,0.00,4.000000,,2013-03-30 01:03:00,
2013-03-29 21:33:00,35.0,24.0,-100.00,NW,310,2.0,5.0,63,0.00,,,0.00,0.000000,,2013-03-30 01:33:00,
2013-03-29 21:43:00,35.0,24.0,-100.00,NW,310,2.0,5.0,63,0.00,,,0.00,0.000000,,2013-03-30 01:43:00,
2013-03-29 21:53:00,35.0,24.0,-100.00,NW,310,2.0,5.0,63,0.00,,,0.00,0.000000,,2013-03-30 01:53:00,
2013-03-29 22:03:00,35.0,24.0,-100.00,NW,310,2.0,5.0,63,0.00,,,0.00,0.000000,,2013-03-30 02:03:00,
2013-03-29 22:33:00,35.0,25.0,-100.00,NW,313,2.0,5.0,66,0.00,,,0.00,0.000000,,2013-03-30 02:33:00,
2013-03-29 22:43:00,35.0,25.0,-100.00,NW,313,2.0,5.0,66,0.00,,,0.00,0.000000,,2013-03-30 02:43:00,
2013-03-29 22:53:00,35.0,25.0,-100.00,NW,313,2.0,5.0,66,0.00,,,0.00,0.000000,,2013-03-30 02:53:00,
2013-03-29 23:03:00,35.0,25.0,-100.00,NW,313,2.0,5.0,66,0.00,,,0.00,0.000000,,2013-03-30 03:03:00,
2013-03-29 23:33:00,34.0,24.0,-100.00,NW,325,2.0,3.0,66,0.00,,,0.00,0.000000,,2013-03-30 03:33:00,
2013-03-29 23:43:00,34.0,24.0,-100.00,NW,325,2.0,3.0,66,0.00,,,0.00,0.000000,,2013-03-30 03:43:00,
2013-03-29 23:53:00,34.0,24.0,-100.00,NW,325,2.0,3.0,66,0.00,,,0.00,0.000000,,2013-03-30 03:53:00,